FW3855 Weather Reports


Display with metric or nautical units.
time (UTC)temp
F
wind
direction
speed
MPH
gust
MPH
rain 1hr
in
rain 24hr
in
rain mn
in
humidity
%
barometer
mb
20260831040005 79 176 4.0 15.0 0.00 0.00 0.00 42 1017.7
20260831035506 79 202 6.0 15.0 0.00 0.00 0.00 42 1017.7
20260831035004 79 125 6.0 13.0 0.00 0.00 0.00 42 1017.6
20260831034506 79 271 5.0 15.0 0.00 0.00 0.00 42 1017.7
20260831034005 79 169 6.0 15.0 0.00 0.00 0.00 43 1017.7
20260831033507 79 187 6.0 17.0 0.00 0.00 0.00 42 1017.8
20260831033004 79 226 6.0 17.0 0.00 0.00 0.00 42 1017.5
20260831032503 80 206 5.0 13.0 0.00 0.00 0.00 41 1017.5
20260831031002 80 166 5.0 11.0 0.00 0.00 0.00 43 1017.3
20260831030459 80 193 5.0 18.0 0.00 0.00 0.00 43 1017.3
20260831025958 80 172 5.0 18.0 0.00 0.00 0.00 44 1017.3
20260831025458 80 207 5.0 14.0 0.00 0.00 0.00 44 1017.2
20260831024959 80 220 5.0 14.0 0.00 0.00 0.00 44 1017.3
20260831024453 80 120 5.0 14.0 0.00 0.00 0.00 44 1017.2
20260831023949 80 203 5.0 19.0 0.00 0.00 0.00 43 1017.3
20260831023441 81 186 4.0 19.0 0.00 0.00 0.00 41 1017.2
20260831022935 81 195 4.0 14.0 0.00 0.00 0.00 39 1017.2
20260831022428 81 158 4.0 14.0 0.00 0.00 0.00 38 1017.0
20260831021923 82 144 4.0 24.0 0.00 0.00 0.00 37 1016.9
20260831021417 82 137 3.0 12.0 0.00 0.00 0.00 36 1016.8
20260831020911 83 141 3.0 11.0 0.00 0.00 0.00 37 1016.8
20260831020404 83 203 4.0 10.0 0.00 0.00 0.00 36 1016.9
20260831015906 84 222 5.0 17.0 0.00 0.00 0.00 35 1017.0
20260831015404 84 168 3.0 17.0 0.00 0.00 0.00 34 1017.0
20260831014907 85 181 2.0 8.0 0.00 0.00 0.00 30 1016.9
20260831014404 85 113 2.0 8.0 0.00 0.00 0.00 27 1016.9
20260831013900 86 217 3.0 11.0 0.00 0.00 0.00 23 1016.9
20260831013402 86 275 4.0 11.0 0.00 0.00 0.00 22 1016.8
20260831012900 87 206 4.0 10.0 0.00 0.00 0.00 22 1016.7
20260831012358 87 223 5.0 14.0 0.00 0.00 0.00 21 1016.8
20260831011856 87 242 5.0 14.0 0.00 0.00 0.00 21 1016.8
20260831011359 88 288 5.0 12.0 0.00 0.00 0.00 20 1016.9
20260831010857 88 253 5.0 11.0 0.00 0.00 0.00 20 1016.8
20260831010358 88 231 6.0 14.0 0.00 0.00 0.00 20 1017.0
20260831005857 88 262 7.0 15.0 0.00 0.00 0.00 20 1017.0
20260831005400 88 345 7.0 15.0 0.00 0.00 0.00 20 1017.0
20260831004856 88 233 6.0 15.0 0.00 0.00 0.00 19 1016.9
20260831004357 89 294 6.0 14.0 0.00 0.00 0.00 20 1016.9
20260831003857 89 264 6.0 11.0 0.00 0.00 0.00 19 1016.8
20260831003352 89 217 6.0 11.0 0.00 0.00 0.00 19 1016.8
20260831002845 89 218 6.0 18.0 0.00 0.00 0.00 19 1016.8
20260831002339 89 259 7.0 18.0 0.00 0.00 0.00 19 1016.5
20260831001833 89 285 7.0 15.0 0.00 0.00 0.00 20 1016.6
20260831001327 89 285 7.0 15.0 0.00 0.00 0.00 21 1016.6
20260831000821 89 216 6.0 14.0 0.00 0.00 0.00 20 1016.5
20260831000318 90 297 7.0 14.0 0.00 0.00 0.00 20 1016.4
20260830235305 90 237 7.0 18.0 0.00 0.00 0.00 19 1016.6
20260830234757 90 176 7.0 18.0 0.00 0.00 0.00 19 1016.7
20260830234251 91 257 5.0 16.0 0.00 0.00 0.00 17 1016.7
20260830233745 91 283 4.0 11.0 0.00 0.00 0.00 17 1016.7
20260830232733 91 195 5.0 15.0 0.00 0.00 0.00 17 1016.7
20260830232227 91 229 5.0 15.0 0.00 0.00 0.00 17 1016.6
20260830231216 91 330 5.0 14.0 0.00 0.00 0.00 17 1016.7
20260830230709 90 300 8.0 20.0 0.00 0.00 0.00 18 1016.8
20260830225657 90 271 9.0 19.0 0.00 0.00 0.00 17 1016.9
20260830225151 90 279 8.0 19.0 0.00 0.00 0.00 17 1017.0
20260830223634 91 290 5.0 14.0 0.00 0.00 0.00 16 1017.0
20260830223127 91 170 6.0 14.0 0.00 0.00 0.00 16 1017.0
20260830222621 91 293 7.0 21.0 0.00 0.00 0.00 17 1017.0
20260830222115 91 202 7.0 21.0 0.00 0.00 0.00 16 1017.0
20260830221610 92 139 5.0 13.0 0.00 0.00 0.00 17 1017.2